| time (UTC) | temp F | wind direction | speed MPH | gust MPH | rain 1hr in | rain 24hr in | rain mn in | humidity % | barometer mb |
| 20260906104514 | 54 | 38 | 0.0 | 0.0 | 0.00 | 0.00 | 0.00 | 94 | 1018.3 |
| 20260906103012 | 54 | 38 | 0.0 | 0.0 | 0.00 | 0.00 | 0.00 | 94 | 1018.3 |
| 20260906101511 | 54 | 38 | 0.0 | 0.0 | 0.00 | 0.00 | 0.00 | 94 | 1018.1 |
| 20260906100009 | 53 | 38 | 0.0 | 0.0 | 0.00 | 0.00 | 0.00 | 93 | 1018.0 |
| 20260906094507 | 54 | 38 | 0.0 | 0.0 | 0.00 | 0.00 | 0.00 | 93 | 1018.1 |
| 20260906093005 | 54 | 38 | 0.0 | 0.0 | 0.00 | 0.00 | 0.00 | 93 | 1018.0 |
| 20260906091511 | 54 | 38 | 0.0 | 0.0 | 0.00 | 0.00 | 0.00 | 93 | 1017.9 |
| 20260906090001 | 55 | 38 | 0.0 | 1.0 | 0.00 | 0.00 | 0.00 | 93 | 1017.7 |
| 20260906084700 | 56 | 38 | 0.0 | 1.0 | 0.00 | 0.00 | 0.00 | 93 | 1017.7 |
| 20260906083059 | 56 | 38 | 0.0 | 2.0 | 0.00 | 0.00 | 0.00 | 93 | 1017.6 |
| 20260906081600 | 56 | 38 | 0.0 | 1.0 | 0.00 | 0.00 | 0.00 | 93 | 1017.5 |
| 20260906080106 | 56 | 38 | 0.0 | 0.0 | 0.00 | 0.00 | 0.00 | 93 | 1017.4 |
| 20260906074556 | 56 | 38 | 0.0 | 0.0 | 0.00 | 0.00 | 0.00 | 93 | 1017.6 |
| 20260906073055 | 56 | 38 | 0.0 | 0.0 | 0.00 | 0.00 | 0.00 | 93 | 1017.5 |
| 20260906071601 | 57 | 38 | 0.0 | 1.0 | 0.00 | 0.00 | 0.00 | 93 | 1017.4 |
| 20260906070053 | 56 | 38 | 0.0 | 0.0 | 0.00 | 0.00 | 0.00 | 93 | 1017.3 |
| 20260906064553 | 57 | 38 | 0.0 | 0.0 | 0.00 | 0.00 | 0.00 | 92 | 1017.2 |
| 20260906063052 | 57 | 38 | 0.0 | 1.0 | 0.00 | 0.00 | 0.00 | 93 | 1017.4 |
| 20260906061552 | 57 | 38 | 0.0 | 2.0 | 0.00 | 0.00 | 0.00 | 93 | 1017.3 |
| 20260906060120 | 56 | 38 | 0.0 | 1.0 | 0.00 | 0.00 | 0.00 | 92 | 1017.3 |
| 20260906054548 | 56 | 38 | 0.0 | 0.0 | 0.00 | 0.00 | 0.00 | 92 | 1017.3 |
| 20260906053048 | 55 | 38 | 0.0 | 0.0 | 0.00 | 0.00 | 0.00 | 91 | 1017.0 |
| 20260906051546 | 56 | 38 | 0.0 | 0.0 | 0.00 | 0.00 | 0.00 | 91 | 1017.3 |
| 20260906050043 | 56 | 38 | 0.0 | 0.0 | 0.00 | 0.00 | 0.00 | 91 | 1017.3 |
| 20260906044540 | 57 | 38 | 0.0 | 0.0 | 0.00 | 0.00 | 0.00 | 91 | 1017.1 |
| 20260906043040 | 57 | 38 | 0.0 | 1.0 | 0.00 | 0.00 | 0.00 | 92 | 1016.9 |
| 20260906041537 | 57 | 38 | 0.0 | 1.0 | 0.00 | 0.00 | 0.00 | 91 | 1016.9 |
| 20260906040038 | 57 | 38 | 0.0 | 0.0 | 0.00 | 0.00 | 0.00 | 90 | 1016.9 |
| 20260906034535 | 57 | 38 | 0.0 | 0.0 | 0.00 | 0.00 | 0.00 | 90 | 1016.7 |
| 20260906033034 | 58 | 38 | 0.0 | 1.0 | 0.00 | 0.00 | 0.00 | 89 | 1016.7 |
| 20260906031558 | 58 | 38 | 0.0 | 0.0 | 0.00 | 0.00 | 0.00 | 89 | 1016.6 |
| 20260906030029 | 58 | 38 | 0.0 | 0.0 | 0.00 | 0.00 | 0.00 | 88 | 1016.5 |
| 20260906024528 | 58 | 38 | 0.0 | 0.0 | 0.00 | 0.00 | 0.00 | 87 | 1016.5 |
| 20260906023024 | 59 | 38 | 0.0 | 1.0 | 0.00 | 0.00 | 0.00 | 87 | 1016.7 |
| 20260906021523 | 59 | 38 | 0.0 | 1.0 | 0.00 | 0.00 | 0.00 | 86 | 1016.6 |
| 20260906020021 | 60 | 38 | 0.0 | 1.0 | 0.00 | 0.00 | 0.00 | 86 | 1016.4 |
| 20260906014525 | 60 | 38 | 0.0 | 2.0 | 0.00 | 0.00 | 0.00 | 86 | 1016.4 |
| 20260906013017 | 61 | 38 | 0.0 | 1.0 | 0.00 | 0.00 | 0.00 | 85 | 1016.5 |
| 20260906011514 | 61 | 38 | 0.0 | 0.0 | 0.00 | 0.00 | 0.00 | 84 | 1016.3 |
| 20260906010012 | 62 | 38 | 0.0 | 1.0 | 0.00 | 0.00 | 0.00 | 82 | 1016.1 |
| 20260906004507 | 63 | 38 | 0.0 | 2.0 | 0.00 | 0.00 | 0.00 | 81 | 1016.0 |
| 20260906003005 | 64 | 38 | 1.0 | 3.0 | 0.00 | 0.00 | 0.00 | 78 | 1016.0 |
| 20260906001503 | 66 | 38 | 0.0 | 2.0 | 0.00 | 0.00 | 0.00 | 75 | 1015.8 |
| 20260906000003 | 68 | 38 | 0.0 | 3.0 | 0.00 | 0.00 | 0.00 | 71 | 1015.7 |
| 20260905234502 | 69 | 32 | 0.0 | 3.0 | 0.00 | 0.00 | 0.00 | 70 | 1015.7 |
| 20260905233105 | 70 | 5 | 1.0 | 5.0 | 0.00 | 0.00 | 0.00 | 68 | 1015.7 |
| 20260905231617 | 71 | 53 | 2.0 | 6.0 | 0.00 | 0.00 | 0.00 | 65 | 1015.5 |
| 20260905224557 | 72 | 37 | 6.0 | 9.0 | 0.00 | 0.00 | 0.00 | 64 | 1015.4 |
| 20260905223056 | 73 | 38 | 4.0 | 10.0 | 0.00 | 0.00 | 0.00 | 65 | 1015.4 |
| 20260905221612 | 73 | 38 | 6.0 | 11.0 | 0.00 | 0.00 | 0.00 | 62 | 1015.3 |
| 20260905220053 | 74 | 19 | 8.0 | 12.0 | 0.00 | 0.00 | 0.00 | 62 | 1015.1 |
| 20260905214558 | 75 | 56 | 5.0 | 12.0 | 0.00 | 0.00 | 0.00 | 65 | 1015.0 |
| 20260905213048 | 75 | 61 | 5.0 | 12.0 | 0.00 | 0.00 | 0.00 | 66 | 1015.0 |
| 20260905211550 | 76 | 355 | 5.0 | 15.0 | 0.00 | 0.00 | 0.00 | 66 | 1014.9 |
| 20260905210057 | 76 | 5 | 7.0 | 15.0 | 0.00 | 0.00 | 0.00 | 66 | 1015.0 |
| 20260905204545 | 77 | 360 | 10.0 | 16.0 | 0.00 | 0.00 | 0.00 | 65 | 1015.0 |
| 20260905203045 | 77 | 332 | 7.0 | 16.0 | 0.00 | 0.00 | 0.00 | 67 | 1014.9 |
| 20260905201545 | 77 | 11 | 6.0 | 15.0 | 0.00 | 0.00 | 0.00 | 67 | 1014.9 |
| 20260905200049 | 77 | 344 | 9.0 | 13.0 | 0.00 | 0.00 | 0.00 | 67 | 1014.9 |
| 20260905194546 | 77 | 22 | 3.0 | 13.0 | 0.00 | 0.00 | 0.00 | 70 | 1014.9 |
| 20260905193044 | 76 | 24 | 7.0 | 14.0 | 0.00 | 0.00 | 0.00 | 72 | 1014.8 |
| 20260905191543 | 76 | 337 | 6.0 | 15.0 | 0.00 | 0.00 | 0.00 | 73 | 1014.9 |
| 20260905190047 | 76 | 355 | 5.0 | 13.0 | 0.00 | 0.00 | 0.00 | 73 | 1015.1 |
| 20260905184541 | 77 | 342 | 8.0 | 13.0 | 0.00 | 0.00 | 0.00 | 70 | 1015.2 |
| 20260905183041 | 76 | 59 | 4.0 | 12.0 | 0.00 | 0.00 | 0.00 | 74 | 1015.2 |
| 20260905181540 | 76 | 355 | 6.0 | 12.0 | 0.00 | 0.00 | 0.00 | 74 | 1015.2 |
| 20260905180056 | 77 | 65 | 4.0 | 9.0 | 0.00 | 0.00 | 0.00 | 72 | 1015.1 |
| 20260905174538 | 77 | 57 | 4.0 | 10.0 | 0.00 | 0.00 | 0.00 | 63 | 1015.2 |
| 20260905173046 | 77 | 18 | 3.0 | 8.0 | 0.00 | 0.00 | 0.00 | 64 | 1015.1 |
| 20260905171549 | 77 | 24 | 2.0 | 9.0 | 0.00 | 0.00 | 0.00 | 66 | 1015.2 |
| 20260905170032 | 77 | 15 | 3.0 | 6.0 | 0.00 | 0.00 | 0.00 | 65 | 1015.2 |
| 20260905164531 | 75 | 127 | 3.0 | 8.0 | 0.00 | 0.00 | 0.00 | 69 | 1015.3 |
| 20260905163031 | 76 | 40 | 2.0 | 8.0 | 0.00 | 0.00 | 0.00 | 69 | 1015.4 |
| 20260905161530 | 76 | 59 | 4.0 | 8.0 | 0.00 | 0.00 | 0.00 | 68 | 1015.3 |
| 20260905160045 | 75 | 71 | 3.0 | 8.0 | 0.00 | 0.00 | 0.00 | 69 | 1015.3 |
| 20260905154526 | 74 | 59 | 3.0 | 9.0 | 0.00 | 0.00 | 0.00 | 71 | 1015.3 |
| 20260905153027 | 75 | 55 | 3.0 | 9.0 | 0.00 | 0.00 | 0.00 | 70 | 1015.3 |
| 20260905151522 | 74 | 81 | 4.0 | 7.0 | 0.00 | 0.00 | 0.00 | 72 | 1015.1 |
| 20260905150019 | 73 | 86 | 2.0 | 7.0 | 0.00 | 0.00 | 0.00 | 74 | 1015.2 |
| 20260905144527 | 73 | 117 | 2.0 | 7.0 | 0.00 | 0.00 | 0.00 | 75 | 1015.2 |
| 20260905143015 | 73 | 116 | 2.0 | 7.0 | 0.00 | 0.00 | 0.00 | 79 | 1015.1 |
| 20260905141514 | 72 | 70 | 3.0 | 9.0 | 0.00 | 0.00 | 0.00 | 79 | 1014.9 |
| 20260905140018 | 71 | 63 | 1.0 | 8.0 | 0.00 | 0.00 | 0.00 | 82 | 1014.9 |
| 20260905134507 | 70 | 59 | 1.0 | 5.0 | 0.00 | 0.01 | 0.00 | 83 | 1015.1 |
| 20260905133008 | 70 | 49 | 1.0 | 9.0 | 0.00 | 0.01 | 0.00 | 85 | 1015.1 |
| 20260905131601 | 69 | 91 | 2.0 | 6.0 | 0.00 | 0.01 | 0.00 | 88 | 1015.2 |
| 20260905130057 | 68 | 41 | 2.0 | 6.0 | 0.00 | 0.01 | 0.00 | 91 | 1015.1 |
| 20260905124558 | 67 | 55 | 2.0 | 4.0 | 0.00 | 0.02 | 0.00 | 93 | 1015.1 |
| 20260905123051 | 66 | 74 | 1.0 | 3.0 | 0.00 | 0.02 | 0.00 | 93 | 1015.0 |
| 20260905121549 | 65 | 74 | 0.0 | 2.0 | 0.00 | 0.02 | 0.00 | 93 | 1014.9 |
| 20260905120058 | 64 | 74 | 0.0 | 2.0 | 0.00 | 0.02 | 0.00 | 93 | 1014.6 |
| 20260905114558 | 64 | 74 | 0.0 | 0.0 | 0.00 | 0.02 | 0.00 | 93 | 1014.5 |
| 20260905113053 | 64 | 74 | 0.0 | 1.0 | 0.00 | 0.02 | 0.00 | 92 | 1014.2 |
| 20260905111627 | 64 | 74 | 0.0 | 2.0 | 0.00 | 0.02 | 0.00 | 93 | 1014.0 |
| 20260905110042 | 65 | 74 | 0.0 | 2.0 | 0.00 | 0.02 | 0.00 | 93 | 1014.1 |